TimeAKST,TemperatureF,Dew PointF,Humidity,Sea Level PressureIn,VisibilityMPH,Wind Direction,Wind SpeedMPH,Gust SpeedMPH,PrecipitationIn,Events,Conditions,WindDirDegrees,DateUTC
12:53 AM,-29.9,-9999,N/A,30.30,10.0,Calm,Calm,-,N/A,,Clear,0,2012-11-13 09:53:00
1:53 AM,-29.9,-9999,N/A,30.29,10.0,Calm,Calm,-,N/A,,Clear,0,2012-11-13 10:53:00
3:53 AM,-31.0,-9999,N/A,30.28,10.0,Calm,Calm,-,N/A,,Clear,0,2012-11-13 12:53:00
4:07 AM,-31.0,-9999,N/A,30.17,9.0,Calm,Calm,-,N/A,,Scattered Clouds,0,2012-11-13 13:07:00
4:53 AM,-31.0,-9999,N/A,30.30,10.0,Calm,Calm,-,N/A,,Clear,0,2012-11-13 13:53:00
5:10 AM,-29.2,-9999,N/A,30.19,10.0,WSW,3.5,-,N/A,,Scattered Clouds,240,2012-11-13 14:10:00
5:19 AM,-29.2,-9999,N/A,30.18,9.0,Calm,Calm,-,N/A,,Mostly Cloudy,0,2012-11-13 14:19:00
5:50 AM,-29.2,-9999,N/A,30.19,10.0,Calm,Calm,-,N/A,,Scattered Clouds,0,2012-11-13 14:50:00
5:53 AM,-29.0,-36.0,69,30.31,10.0,Calm,Calm,-,N/A,,Scattered Clouds,0,2012-11-13 14:53:00
6:36 AM,-29.2,-9999,N/A,30.20,8.0,Calm,Calm,-,N/A,,Mostly Cloudy,0,2012-11-13 15:36:00
7:13 AM,-29.2,-36.4,68,30.20,10.0,South,3.5,-,N/A,,Overcast,170,2012-11-13 16:13:00
7:53 AM,-24.0,-29.9,74,30.34,10.0,Calm,Calm,-,N/A,,Overcast,0,2012-11-13 16:53:00
8:39 AM,-18.4,-25.6,70,30.23,2.5,Calm,Calm,-,0.00,Snow,Light Snow,0,2012-11-13 17:39:00
8:46 AM,-20.2,-25.6,76,30.22,4.0,Calm,Calm,-,0.00,Snow,Light Snow,0,2012-11-13 17:46:00
8:53 AM,-18.9,-25.1,74,30.34,8.0,Calm,Calm,-,0.00,,Overcast,0,2012-11-13 17:53:00
9:53 AM,-16.1,-22.0,74,30.34,6.0,Calm,Calm,-,0.00,,Haze,0,2012-11-13 18:53:00
10:53 AM,-15.0,-20.0,78,30.34,6.0,Calm,Calm,-,0.00,,Haze,0,2012-11-13 19:53:00
11:38 AM,-14.8,-20.2,77,30.23,10.0,Calm,Calm,-,N/A,,Overcast,0,2012-11-13 20:38:00
11:53 AM,-14.1,-20.0,75,30.34,6.0,Calm,Calm,-,N/A,,Haze,0,2012-11-13 20:53:00
12:46 PM,-13.0,-18.4,77,30.23,6.0,Calm,Calm,-,N/A,,Haze,0,2012-11-13 21:46:00
12:53 PM,-13.0,-20.0,71,30.34,10.0,Calm,Calm,-,N/A,,Overcast,0,2012-11-13 21:53:00
1:53 PM,-17.0,-23.1,74,30.33,10.0,South,3.5,-,N/A,,Clear,180,2012-11-13 22:53:00
2:53 PM,-20.9,-27.0,73,30.32,10.0,South,3.5,-,N/A,,Clear,170,2012-11-13 23:53:00
3:45 PM,-23.8,-29.2,76,30.18,10.0,South,3.5,-,N/A,,Scattered Clouds,170,2012-11-14 00:45:00
3:53 PM,-24.0,-31.0,70,30.29,10.0,South,4.6,-,N/A,,Scattered Clouds,170,2012-11-14 00:53:00
4:53 PM,-27.0,-33.0,73,30.27,10.0,Calm,Calm,-,N/A,,Clear,0,2012-11-14 01:53:00
5:08 PM,-27.4,-32.8,75,30.14,10.0,Calm,Calm,-,N/A,,Partly Cloudy,0,2012-11-14 02:08:00
5:53 PM,-27.9,-35.0,69,30.24,10.0,Calm,Calm,-,N/A,,Clear,0,2012-11-14 02:53:00
6:05 PM,-27.4,-34.6,69,30.10,7.0,Calm,Calm,-,N/A,,Scattered Clouds,0,2012-11-14 03:05:00
6:25 PM,-27.4,-34.6,69,30.09,5.0,Calm,Calm,-,N/A,,Haze,0,2012-11-14 03:25:00
6:53 PM,-27.9,-35.0,69,30.20,8.0,Calm,Calm,-,N/A,,Scattered Clouds,0,2012-11-14 03:53:00
7:53 PM,-29.0,-36.0,69,30.16,10.0,Calm,Calm,-,N/A,,Clear,0,2012-11-14 04:53:00
8:53 PM,-27.0,-33.0,73,30.11,10.0,Calm,Calm,-,N/A,,Clear,0,2012-11-14 05:53:00
9:53 PM,-9.0,-15.0,75,30.06,10.0,East,10.4,19.6,N/A,,Clear,100,2012-11-14 06:53:00
10:53 PM,-8.0,-15.0,71,30.03,10.0,ESE,11.5,19.6,N/A,,Clear,110,2012-11-14 07:53:00
11:53 PM,-6.0,-13.0,72,30.01,10.0,ESE,11.5,20.7,N/A,,Clear,110,2012-11-14 08:53:00